Wind_Speed
17 17 17 17 17 16 15 15 14 15 17 18 19 20 20 20 20 19 18 18 17 16 14 12 12 10 9 8 7 5 4 2 1 0 1 1 1 1 1 2 2 2 3
17 17 16 17 17 15 14 15 14 15 16 16 17 19 21 21 20 19 18 17 17 16 15 13 12 11 10 9 8 6 5 3 2 1 1 2 2 1 1 2 3 3 3
16 16 15 15 15 14 14 14 14 15 15 15 16 18 20 20 19 18 17 18 17 17 16 14 13 12 11 10 8 7 5 4 3 2 2 2 2 2 2 2 3 3 3
15 15 14 14 14 13 13 13 13 13 14 14 15 17 19 19 19 18 18 19 18 17 17 15 15 13 12 11 10 8 6 5 4 3 3 3 3 3 3 3 3 4 4
15 15 15 14 14 12 11 11 11 11 13 14 14 16 18 19 20 19 19 19 18 18 17 16 16 15 14 12 11 10 8 7 6 5 4 4 4 4 4 3 4 5 5
16 14 14 14 13 12 11 11 10 10 12 14 15 15 16 18 19 19 19 19 18 17 17 17 16 16 15 14 13 11 9 8 7 6 6 5 5 6 6 6 7 7 8
15 14 14 13 12 12 11 10 9 9 10 13 14 15 17 18 19 19 19 19 19 17 17 17 17 17 16 15 14 13 11 10 9 8 8 8 8 8 9 9 9 10 10
14 14 14 13 12 11 10 8 8 8 8 10 13 15 16 17 18 19 19 18 18 18 18 17 17 18 17 16 15 14 13 12 11 10 10 10 10 11 11 12 12 13 13
13 14 13 12 10 9 9 8 8 8 8 10 12 14 15 16 18 18 19 19 18 17 16 17 17 17 17 16 16 15 14 14 13 13 13 13 13 13 14 14 15 16 16
14 13 12 11 10 9 8 8 8 7 7 9 12 14 15 15 16 17 17 19 19 18 17 18 18 18 17 18 17 16 16 15 15 15 16 16 16 16 17 18 18 19 20
13 12 11 10 9 8 8 8 7 6 7 8 10 11 13 15 16 16 18 19 19 18 18 19 18 18 18 18 18 18 18 17 17 18 18 18 19 20 21 21 22 22 23
12 11 11 10 8 8 7 7 6 5 5 7 9 10 11 13 13 15 16 18 19 19 19 19 18 18 17 18 19 19 19 19 20 20 21 22 22 23 24 24 24 25 26
13 11 10 10 8 8 7 7 6 4 4 5 7 8 10 11 12 13 14 15 16 17 17 17 17 17 18 19 20 20 21 22 22 23 24 25 26 26 27 27 27 28 28
13 12 11 10 9 8 8 7 6 5 4 6 7 7 9 11 12 13 14 15 16 16 17 17 18 19 20 21 21 22 23 23 24 25 26 27 28 29 29 29 30 31 31
15 14 13 11 10 9 8 7 7 6 6 6 7 7 9 10 11 12 14 15 17 18 19 20 20 21 21 22 23 24 25 26 27 27 28 29 30 30 32 32 33 34 35
17 16 14 13 12 10 9 9 8 7 7 7 8 9 9 11 12 13 14 16 17 18 19 20 21 21 23 24 25 26 27 28 29 29 30 31 31 32 33 34 36 37 38
19 17 16 15 14 12 11 10 10 9 8 8 8 9 10 11 13 14 15 16 17 18 19 21 22 23 24 26 27 28 29 29 30 31 32 33 34 35 36 37 38 38 39
21 20 19 17 16 15 13 13 12 12 11 11 11 11 12 13 13 15 17 18 20 21 21 23 24 25 25 25 26 28 29 30 31 32 33 35 36 37 38 38 38 39 40
23 21 20 19 18 17 16 15 15 14 14 13 13 13 14 15 16 16 16 17 18 20 21 22 23 24 25 26 28 29 30 31 32 33 35 36 37 38 39 40 40 41 41
25 24 22 21 20 19 18 17 17 16 16 16 16 15 15 16 17 18 18 19 19 20 21 23 24 25 26 27 29 31 31 33 34 35 37 38 39 41 42 42 42 43 43
26 25 24 23 22 21 20 19 19 19 18 18 19 19 19 18 19 20 20 21 21 22 24 25 26 26 28 29 31 32 33 34 36 36 38 39 39 40 41 42 43 44 45
27 27 26 25 23 22 21 21 20 20 20 20 21 21 21 21 21 22 23 23 24 25 26 27 27 28 29 31 32 33 34 36 37 38 38 39 40 41 41 43 44 45 46
28 28 28 26 25 25 24 23 23 22 22 22 23 23 24 24 24 25 25 24 24 25 26 28 30 30 31 32 33 35 36 37 38 39 40 41 42 43 44 45 47 48 49
29 28 28 27 27 26 26 26 25 25 25 25 25 25 26 26 25 25 26 26 27 28 29 30 31 32 33 34 35 36 38 38 39 41 42 43 44 46 47 48 50 51 51
28 28 28 28 28 28 28 27 28 27 27 27 28 28 28 29 28 29 30 30 30 30 31 31 32 34 35 36 37 38 39 40 42 43 44 46 47 49 50 51 53 53 54
28 28 28 29 30 30 30 30 30 29 29 29 29 29 30 30 30 30 31 31 32 32 33 34 35 35 36 36 38 39 40 42 44 46 47 49 51 52 53 53 54 55 55
Wind_Direction
304 305 305 304 304 295 278 270 266 260 256 253 248 242 232 229 226 225 227 226 225 225 221 221 223 225 225 225 223 215 215 220 232 283 321 316 333 352 9 10 0 347 347
305 307 307 307 306 298 278 270 265 262 259 252 245 237 230 227 224 224 223 222 220 221 219 220 223 224 223 221 221 214 215 223 239 260 285 315 328 347 4 2 353 347 345
305 307 309 309 308 301 282 272 269 267 257 247 241 234 228 222 224 222 220 217 217 218 215 218 219 219 218 219 220 217 220 223 233 245 268 299 328 327 333 344 348 345 345
307 308 311 312 311 303 289 284 279 269 257 245 239 233 225 221 222 221 217 215 216 216 215 218 220 219 218 219 222 222 221 229 239 253 265 280 298 312 323 337 345 344 334
307 306 309 312 314 308 298 292 285 270 256 244 235 228 224 220 220 219 216 216 217 218 216 217 218 218 217 219 223 225 224 232 241 252 264 277 291 297 308 321 320 320 320
302 303 305 311 315 313 304 298 290 273 255 239 228 222 220 217 219 216 215 215 217 218 216 217 219 220 219 220 222 225 229 235 240 248 258 270 281 291 297 304 307 309 310
300 302 305 307 312 316 307 299 292 277 257 236 222 220 217 217 218 216 215 217 218 217 218 220 222 221 221 224 225 228 235 239 245 252 259 266 275 283 290 295 300 302 302
302 303 305 304 305 313 312 304 299 284 258 231 222 219 217 218 217 217 217 218 220 222 222 222 220 222 224 226 229 232 237 243 249 254 260 266 274 280 285 290 294 298 299
302 304 305 302 305 310 313 308 304 287 253 230 220 218 216 219 218 218 217 218 220 221 222 221 221 221 224 228 233 236 241 246 251 256 261 268 274 279 283 288 291 293 295
300 303 304 305 307 308 310 314 311 283 246 228 223 219 216 216 218 219 220 220 219 220 222 222 222 227 230 233 234 239 244 249 254 259 264 270 275 279 282 285 288 291 292
297 298 303 304 305 305 305 309 318 287 240 224 220 216 216 217 222 222 221 220 220 223 224 226 229 233 235 234 237 242 248 253 258 263 267 270 274 278 281 284 288 290 291
294 299 302 302 303 303 305 309 316 301 242 222 219 219 219 219 223 221 219 221 223 225 226 228 232 235 236 239 243 248 252 256 261 265 269 272 275 278 281 284 287 289 289
292 297 296 296 295 297 300 305 302 295 249 231 224 222 223 226 225 220 220 223 223 225 226 228 232 237 241 246 249 253 257 261 264 267 270 272 276 279 280 282 285 286 288
283 290 291 290 287 288 291 294 288 276 248 229 225 227 232 232 228 225 226 226 227 229 233 235 238 242 246 251 254 258 261 264 268 271 274 275 278 280 280 282 284 285 286
278 281 283 285 283 279 281 282 284 273 254 243 240 242 242 236 230 229 230 230 232 235 239 241 244 247 252 257 259 262 265 268 271 274 276 278 280 281 282 283 284 286 286
274 276 277 279 280 277 274 272 276 275 268 257 253 251 251 244 236 235 237 239 241 243 247 248 251 255 259 262 263 267 268 270 272 275 277 278 279 282 284 284 285 286 286
269 273 272 273 274 275 272 268 270 273 269 266 264 257 254 251 243 243 246 248 248 249 251 253 257 260 262 264 265 268 270 272 274 275 278 280 281 283 284 285 285 286 286
266 269 269 270 270 270 269 266 265 266 268 270 269 266 262 259 257 254 254 256 256 257 259 261 263 265 267 269 270 273 272 275 278 279 280 282 283 284 285 286 286 286 286
262 264 265 266 268 268 266 265 264 263 263 265 266 268 267 265 260 259 261 263 264 263 263 265 267 269 271 273 274 276 277 279 280 281 282 283 285 287 287 287 286 285 286
257 258 260 260 265 267 266 266 265 264 264 265 265 266 268 268 264 263 265 267 268 270 271 270 271 274 275 276 277 278 280 281 281 281 283 284 286 287 288 288 288 287 287
253 254 256 258 260 262 263 264 265 264 264 266 266 268 270 271 269 266 267 270 271 273 274 273 275 276 279 281 281 282 283 284 285 285 286 287 288 288 288 289 289 289 289
251 252 253 254 256 260 262 264 267 267 267 269 269 269 269 271 271 267 269 271 272 275 276 276 278 280 282 283 283 284 285 286 286 287 287 289 290 289 289 290 291 291 291
251 251 252 253 255 258 262 263 265 267 268 270 271 270 271 273 274 273 272 274 276 279 281 280 281 283 285 286 286 287 287 288 289 289 290 290 291 291 291 292 292 292 292
250 250 251 251 253 256 260 262 263 266 269 271 271 271 273 274 275 275 276 278 279 281 283 283 284 285 286 287 287 287 288 289 290 291 291 292 293 292 293 293 293 293 293
249 250 250 250 252 254 257 262 263 265 268 270 272 272 274 276 275 275 276 278 280 282 282 284 285 286 287 287 288 289 289 290 291 292 293 293 293 293 293 293 293 293 292
249 249 251 252 254 256 258 261 264 266 269 270 271 273 274 275 277 278 279 280 281 282 283 284 285 286 288 288 289 290 290 291 292 293 293 293 293 294 293 293 293 292 292
Height
5855 5853 5851 5848 5846 5844 5843 5842 5842 5843 5845 5846 5847 5849 5853 5857 5860 5863 5866 5869 5872 5874 5877 5879 5881 5883 5884 5885 5886 5887 5888 5888 5889 5889 5890 5890 5890 5890 5890 5891 5891 5891 5892
5852 5851 5848 5845 5843 5841 5840 5839 5840 5840 5841 5843 5844 5847 5850 5853 5857 5860 5863 5866 5869 5872 5875 5878 5879 5881 5883 5884 5885 5886 5887 5888 5888 5889 5889 5890 5891 5890 5890 5890 5890 5891 5891
5850 5848 5846 5843 5841 5838 5837 5837 5837 5837 5838 5839 5841 5844 5847 5850 5854 5858 5860 5863 5867 5869 5872 5875 5877 5879 5881 5883 5884 5885 5886 5887 5888 5888 5889 5890 5890 5890 5890 5890 5890 5890 5890
5847 5845 5843 5841 5839 5836 5835 5834 5834 5834 5834 5836 5838 5841 5844 5848 5852 5855 5857 5861 5864 5867 5870 5873 5875 5878 5880 5881 5883 5884 5885 5886 5887 5888 5888 5889 5889 5889 5890 5890 5890 5890 5890
5845 5843 5841 5839 5837 5835 5833 5832 5831 5831 5832 5833 5836 5838 5841 5845 5848 5852 5855 5858 5862 5865 5868 5870 5873 5876 5878 5880 5882 5883 5884 5885 5886 5887 5887 5888 5888 5888 5889 5889 5889 5889 5889
5842 5841 5839 5837 5835 5833 5831 5830 5829 5829 5829 5831 5833 5835 5839 5842 5846 5849 5853 5856 5859 5862 5865 5868 5871 5874 5876 5878 5880 5881 5883 5884 5885 5885 5886 5887 5887 5887 5888 5888 5888 5888 5888
5840 5839 5837 5835 5833 5831 5829 5828 5827 5827 5827 5828 5830 5833 5836 5839 5843 5846 5850 5853 5857 5860 5863 5866 5868 5871 5873 5876 5878 5879 5881 5882 5883 5884 5885 5885 5885 5886 5886 5886 5886 5886 5886
5838 5837 5835 5833 5832 5830 5828 5827 5826 5825 5825 5826 5828 5831 5834 5837 5840 5844 5847 5851 5854 5857 5860 5863 5866 5868 5871 5873 5875 5877 5879 5880 5881 5882 5882 5883 5883 5884 5884 5884 5884 5884 5883
5836 5835 5833 5831 5830 5828 5827 5825 5824 5823 5823 5824 5826 5828 5831 5834 5838 5841 5844 5848 5851 5854 5857 5860 5863 5865 5867 5870 5872 5874 5876 5877 5879 5879 5880 5881 5881 5881 5881 5881 5881 5881 5880
5834 5833 5831 5830 5828 5827 5826 5824 5823 5821 5821 5822 5824 5826 5829 5832 5835 5838 5841 5845 5848 5851 5854 5857 5859 5862 5864 5867 5869 5871 5873 5874 5875 5876 5877 5877 5878 5878 5878 5877 5877 5876 5876
5831 5831 5829 5828 5827 5826 5825 5823 5821 5820 5820 5821 5822 5825 5827 5830 5833 5836 5839 5842 5845 5848 5851 5853 5856 5859 5861 5863 5865 5867 5869 5870 5872 5873 5873 5873 5874 5874 5873 5873 5872 5872 5871
5830 5829 5828 5827 5826 5825 5824 5823 5821 5819 5819 5820 5822 5824 5826 5828 5830 5833 5836 5838 5842 5845 5848 5850 5853 5855 5857 5859 5861 5863 5865 5866 5867 5868 5868 5869 5869 5869 5868 5868 5867 5866 5865
5827 5827 5826 5826 5825 5824 5823 5822 5821 5820 5819 5820 5821 5823 5825 5826 5828 5830 5833 5836 5839 5842 5844 5847 5849 5851 5853 5855 5857 5858 5860 5861 5862 5863 5863 5863 5863 5862 5862 5861 5861 5860 5859
5825 5825 5825 5824 5824 5823 5822 5821 5820 5820 5820 5820 5821 5822 5823 5824 5826 5828 5831 5834 5836 5839 5841 5843 5845 5847 5849 5850 5852 5854 5855 5856 5856 5857 5857 5857 5856 5856 5855 5854 5854 5853 5852
5822 5823 5823 5822 5822 5821 5821 5820 5820 5819 5819 5820 5820 5821 5822 5822 5824 5826 5829 5831 5834 5836 5838 5839 5841 5843 5844 5845 5846 5848 5849 5850 5850 5850 5850 5850 5849 5848 5848 5847 5846 5845 5844
5819 5820 5820 5820 5820 5819 5819 5819 5819 5819 5818 5818 5819 5819 5820 5821 5823 5825 5827 5828 5830 5832 5833 5834 5836 5838 5839 5840 5841 5841 5842 5842 5843 5843 5842 5842 5842 5841 5840 5838 5837 5836 5834
5815 5816 5816 5816 5817 5817 5817 5817 5817 5817 5817 5817 5818 5818 5818 5819 5820 5822 5824 5825 5826 5828 5829 5830 5831 5833 5833 5833 5834 5834 5834 5835 5835 5835 5834 5834 5833 5832 5830 5829 5827 5826 5824
5811 5812 5812 5813 5814 5814 5815 5815 5815 5815 5816 5816 5816 5816 5817 5817 5818 5820 5821 5822 5823 5823 5824 5825 5826 5827 5827 5827 5827 5827 5827 5827 5827 5826 5825 5825 5823 5822 5821 5819 5817 5815 5813
5806 5808 5808 5809 5810 5811 5811 5812 5812 5813 5813 5813 5814 5814 5814 5814 5815 5816 5816 5817 5817 5818 5818 5819 5820 5820 5820 5820 5820 5820 5820 5819 5819 5817 5816 5815 5814 5812 5810 5808 5807 5805 5802
5801 5803 5804 5804 5806 5806 5807 5808 5808 5809 5809 5810 5810 5810 5810 5811 5811 5812 5812 5812 5813 5813 5813 5813 5813 5813 5813 5813 5812 5812 5811 5810 5809 5808 5807 5805 5803 5802 5799 5797 5795 5793 5790
5795 5797 5798 5799 5801 5802 5802 5803 5804 5805 5805 5805 5806 5806 5806 5806 5806 5807 5807 5807 5807 5807 5807 5807 5806 5806 5806 5805 5804 5803 5802 5801 5800 5798 5796 5794 5792 5790 5788 5785 5783 5780 5778
5789 5791 5792 5794 5796 5797 5798 5799 5799 5799 5799 5800 5801 5801 5801 5801 5801 5801 5801 5801 5801 5801 5800 5800 5799 5799 5798 5797 5796 5795 5793 5791 5790 5788 5786 5783 5781 5779 5776 5773 5770 5767 5764
5782 5784 5786 5788 5790 5791 5792 5793 5794 5794 5795 5795 5795 5795 5795 5795 5795 5794 5794 5794 5794 5793 5793 5792 5791 5791 5790 5788 5787 5785 5783 5781 5779 5777 5774 5772 5769 5767 5764 5761 5757 5754 5751
5775 5777 5779 5781 5783 5784 5786 5787 5787 5788 5789 5789 5788 5788 5789 5788 5788 5787 5787 5787 5786 5786 5785 5784 5783 5782 5781 5779 5777 5775 5773 5771 5768 5766 5763 5760 5757 5754 5751 5747 5744 5740 5736
5769 5771 5773 5775 5776 5777 5779 5780 5781 5781 5781 5782 5781 5781 5781 5781 5781 5780 5780 5779 5778 5778 5777 5775 5774 5772 5771 5769 5767 5765 5762 5760 5757 5754 5751 5748 5744 5741 5737 5733 5729 5725 5721
5762 5764 5766 5768 5770 5771 5772 5773 5774 5774 5774 5774 5774 5774 5774 5773 5773 5772 5772 5771 5770 5769 5767 5766 5765 5763 5761 5759 5756 5754 5751 5748 5745 5742 5738 5734 5731 5727 5722 5718 5714 5709 5705